Voltar ao catálogo

STARLINK-31042

AtivoComunicaçõesVLEO
NORAD 58739·PAYLOAD·🇺🇸 United States

Lançado Jan 7, 2024 de Cape Canaveral Space Force Station

Loading…

Próximas Passagens (próximas 24 horas)

TLE

AtualizadoSource: CelesTrak SupGP

Época: Sep 15, 2026, 03:14 UTC

1 58739C 24005M   26258.13520833 -.00068939  00000+0 -24974-2 0  2583
2 58739  43.0030 229.8542 0001293 271.6303 210.0869 15.27607185    12

Acompanhe STARLINK-31042 em tempo real com AllMySat

Download on the App Store